Time,TemperatureF,DewpointF,PressureIn,WindDirection,WindDirectionDegrees,WindSpeedMPH,WindSpeedGustMPH,Humidity,HourlyPrecipIn,Conditions,Clouds,dailyrainin,SoftwareType,DateUTC
2013-12-07 00:03:00,3.3,-1.5,30.70,NNW,333,10.0,10.0,80,0.00,,,0.00,Wunderground v.1.15,2013-12-07 06:03:00,
2013-12-07 00:08:00,3.2,-1.3,30.70,NNW,339,11.0,12.0,81,0.00,,,0.00,Wunderground v.1.15,2013-12-07 06:08:00,
2013-12-07 00:13:00,3.1,-1.7,30.70,NNW,340,10.0,11.0,80,0.00,,,0.00,Wunderground v.1.15,2013-12-07 06:13:00,
2013-12-07 00:19:00,3.0,-1.8,30.70,NNW,341,12.0,15.0,80,0.00,,,0.00,Wunderground v.1.15,2013-12-07 06:19:00,
2013-12-07 00:24:00,2.9,-1.9,30.70,NNW,327,9.0,12.0,80,0.00,,,0.00,Wunderground v.1.15,2013-12-07 06:24:00,
2013-12-07 00:30:00,2.7,-2.1,30.70,NNW,334,12.0,12.0,80,0.00,,,0.00,Wunderground v.1.15,2013-12-07 06:30:00,
2013-12-07 00:35:00,2.6,-2.2,30.70,NNW,333,7.0,11.0,80,0.00,,,0.00,Wunderground v.1.15,2013-12-07 06:35:00,
2013-12-07 00:42:00,2.4,-2.4,30.71,NNW,329,8.0,9.0,80,0.00,,,0.00,Wunderground v.1.15,2013-12-07 06:42:00,
2013-12-07 00:48:00,2.3,-2.5,30.71,NNW,335,8.0,11.0,80,0.00,,,0.00,Wunderground v.1.15,2013-12-07 06:48:00,
2013-12-07 00:53:00,2.2,-2.6,30.71,NNW,338,13.0,13.0,80,0.00,,,0.00,Wunderground v.1.15,2013-12-07 06:53:00,
2013-12-07 00:59:00,2.0,-2.8,30.71,NW,325,9.0,13.0,80,0.00,,,0.00,Wunderground v.1.15,2013-12-07 06:59:00,
2013-12-07 01:04:00,1.9,-2.8,30.70,NNW,338,12.0,12.0,80,0.00,,,0.00,Wunderground v.1.15,2013-12-07 07:04:00,
2013-12-07 01:10:00,1.7,-3.0,30.70,NNW,331,11.0,13.0,80,0.00,,,0.00,Wunderground v.1.15,2013-12-07 07:10:00,
2013-12-07 01:16:00,1.6,-2.9,30.71,NNW,333,10.0,12.0,81,0.00,,,0.00,Wunderground v.1.15,2013-12-07 07:16:00,
2013-12-07 01:22:00,1.5,-3.0,30.71,NNW,329,11.0,11.0,81,0.00,,,0.00,Wunderground v.1.15,2013-12-07 07:22:00,
2013-12-07 01:28:00,1.3,-3.2,30.71,NW,321,9.0,11.0,81,0.00,,,0.00,Wunderground v.1.15,2013-12-07 07:28:00,
2013-12-07 01:34:00,1.2,-3.3,30.71,NNW,335,10.0,11.0,81,0.00,,,0.00,Wunderground v.1.15,2013-12-07 07:34:00,
2013-12-07 01:40:00,1.2,-3.5,30.71,NNW,332,10.0,13.0,80,0.00,,,0.00,Wunderground v.1.15,2013-12-07 07:40:00,
2013-12-07 01:45:00,1.1,-3.4,30.71,NNW,333,8.0,10.0,81,0.00,,,0.00,Wunderground v.1.15,2013-12-07 07:45:00,
2013-12-07 01:50:00,1.1,-3.4,30.72,NNW,335,10.0,10.0,81,0.00,,,0.00,Wunderground v.1.15,2013-12-07 07:50:00,
2013-12-07 01:56:00,1.0,-3.5,30.71,NNW,333,13.0,14.0,81,0.00,,,0.00,Wunderground v.1.15,2013-12-07 07:56:00,
2013-12-07 02:03:00,0.9,-3.6,30.71,North,349,10.0,10.0,81,0.00,,,0.00,Wunderground v.1.15,2013-12-07 08:03:00,
2013-12-07 02:08:00,0.9,-3.6,30.71,NNW,342,10.0,14.0,81,0.00,,,0.00,Wunderground v.1.15,2013-12-07 08:08:00,
2013-12-07 02:13:00,0.8,-3.7,30.72,NNW,328,9.0,13.0,81,0.00,,,0.00,Wunderground v.1.15,2013-12-07 08:13:00,
2013-12-07 02:18:00,0.8,-3.7,30.72,NW,317,7.0,15.0,81,0.00,,,0.00,Wunderground v.1.15,2013-12-07 08:18:00,
2013-12-07 02:23:00,0.8,-3.7,30.72,North,355,9.0,10.0,81,0.00,,,0.00,Wunderground v.1.15,2013-12-07 08:23:00,
2013-12-07 02:28:00,0.7,-3.8,30.72,NNW,329,7.0,12.0,81,0.00,,,0.00,Wunderground v.1.15,2013-12-07 08:28:00,
2013-12-07 02:33:00,0.6,-3.9,30.73,NNW,328,8.0,9.0,81,0.00,,,0.00,Wunderground v.1.15,2013-12-07 08:33:00,
2013-12-07 02:38:00,0.6,-3.9,30.73,NNW,334,10.0,14.0,81,0.00,,,0.00,Wunderground v.1.15,2013-12-07 08:38:00,
2013-12-07 02:43:00,0.6,-3.9,30.73,NNW,338,12.0,13.0,81,0.00,,,0.00,Wunderground v.1.15,2013-12-07 08:43:00,
2013-12-07 02:48:00,0.6,-3.9,30.73,NNW,334,9.0,13.0,81,0.00,,,0.00,Wunderground v.1.15,2013-12-07 08:48:00,
2013-12-07 02:53:00,0.5,-4.0,30.73,NNW,327,9.0,11.0,81,0.00,,,0.00,Wunderground v.1.15,2013-12-07 08:53:00,
2013-12-07 02:58:00,0.5,-4.0,30.73,NNW,330,11.0,15.0,81,0.00,,,0.00,Wunderground v.1.15,2013-12-07 08:58:00,
2013-12-07 03:03:00,0.5,-3.7,30.73,NNW,348,9.0,9.0,82,0.00,,,0.00,Wunderground v.1.15,2013-12-07 09:03:00,
2013-12-07 03:08:00,0.4,-4.1,30.73,NNW,345,8.0,12.0,81,0.00,,,0.00,Wunderground v.1.15,2013-12-07 09:08:00,
2013-12-07 03:13:00,0.4,-4.1,30.73,NNW,327,8.0,11.0,81,0.00,,,0.00,Wunderground v.1.15,2013-12-07 09:13:00,
2013-12-07 03:18:00,0.3,-3.9,30.73,NNW,340,9.0,12.0,82,0.00,,,0.00,Wunderground v.1.15,2013-12-07 09:18:00,
2013-12-07 03:23:00,0.2,-4.3,30.74,NNW,331,10.0,13.0,81,0.00,,,0.00,Wunderground v.1.15,2013-12-07 09:23:00,
2013-12-07 03:28:00,0.2,-4.3,30.74,NW,313,9.0,13.0,81,0.00,,,0.00,Wunderground v.1.15,2013-12-07 09:28:00,
2013-12-07 03:33:00,0.2,-4.3,30.73,NNW,331,9.0,11.0,81,0.00,,,0.00,Wunderground v.1.15,2013-12-07 09:33:00,
2013-12-07 03:38:00,0.1,-4.1,30.73,NNW,335,10.0,12.0,82,0.00,,,0.00,Wunderground v.1.15,2013-12-07 09:38:00,
2013-12-07 03:43:00,0.1,-4.1,30.73,NNW,335,10.0,11.0,82,0.00,,,0.00,Wunderground v.1.15,2013-12-07 09:43:00,
2013-12-07 03:48:00,0.1,-4.1,30.73,NNW,335,9.0,12.0,82,0.00,,,0.00,Wunderground v.1.15,2013-12-07 09:48:00,
2013-12-07 03:53:00,0.0,-4.2,30.73,NW,325,10.0,11.0,82,0.00,,,0.00,Wunderground v.1.15,2013-12-07 09:53:00,
2013-12-07 04:02:00,0.0,-4.2,30.73,NNW,332,10.0,10.0,82,0.00,,,0.00,Wunderground v.1.15,2013-12-07 10:02:00,
2013-12-07 04:07:00,0.0,-4.4,30.74,NNW,340,9.0,11.0,81,0.00,,,0.00,Wunderground v.1.15,2013-12-07 10:07:00,
2013-12-07 04:12:00,-0.1,-4.5,30.74,NNW,329,10.0,10.0,81,0.00,,,0.00,Wunderground v.1.15,2013-12-07 10:12:00,
2013-12-07 04:17:00,-0.1,-4.5,30.74,North,349,9.0,12.0,81,0.00,,,0.00,Wunderground v.1.15,2013-12-07 10:17:00,
2013-12-07 04:22:00,-0.1,-4.3,30.74,NNW,338,10.0,10.0,82,0.00,,,0.00,Wunderground v.1.15,2013-12-07 10:22:00,
2013-12-07 04:28:00,-0.1,-4.3,30.74,NNW,333,11.0,13.0,82,0.00,,,0.00,Wunderground v.1.15,2013-12-07 10:28:00,
2013-12-07 04:33:00,-0.2,-4.4,30.74,NNW,332,9.0,11.0,82,0.00,,,0.00,Wunderground v.1.15,2013-12-07 10:33:00,
2013-12-07 04:38:00,-0.2,-4.4,30.74,NNW,334,7.0,13.0,82,0.00,,,0.00,Wunderground v.1.15,2013-12-07 10:38:00,
2013-12-07 04:43:00,-0.3,-4.5,30.74,NNW,331,9.0,11.0,82,0.00,,,0.00,Wunderground v.1.15,2013-12-07 10:43:00,
2013-12-07 04:48:00,-0.3,-4.5,30.75,NW,325,6.0,11.0,82,0.00,,,0.00,Wunderground v.1.15,2013-12-07 10:48:00,
2013-12-07 04:53:00,-0.4,-4.6,30.75,NNW,334,8.0,8.0,82,0.00,,,0.00,Wunderground v.1.15,2013-12-07 10:53:00,
2013-12-07 04:58:00,-0.5,-4.7,30.75,NW,325,5.0,8.0,82,0.00,,,0.00,Wunderground v.1.15,2013-12-07 10:58:00,
2013-12-07 05:03:00,-0.6,-4.8,30.75,NNW,327,5.0,7.0,82,0.00,,,0.00,Wunderground v.1.15,2013-12-07 11:03:00,
2013-12-07 05:08:00,-0.7,-4.9,30.75,NNW,334,6.0,8.0,82,0.00,,,0.00,Wunderground v.1.15,2013-12-07 11:08:00,
2013-12-07 05:13:00,-0.7,-4.9,30.75,NNW,331,6.0,8.0,82,0.00,,,0.00,Wunderground v.1.15,2013-12-07 11:13:00,
2013-12-07 05:18:00,-0.7,-4.9,30.75,NNW,336,6.0,10.0,82,0.00,,,0.00,Wunderground v.1.15,2013-12-07 11:18:00,
2013-12-07 05:23:00,-0.7,-4.9,30.75,NNW,339,6.0,7.0,82,0.00,,,0.00,Wunderground v.1.15,2013-12-07 11:23:00,
2013-12-07 05:28:00,-0.7,-4.9,30.75,NNW,337,6.0,10.0,82,0.00,,,0.00,Wunderground v.1.15,2013-12-07 11:28:00,
2013-12-07 05:33:00,-0.7,-4.9,30.75,NNW,342,6.0,9.0,82,0.00,,,0.00,Wunderground v.1.15,2013-12-07 11:33:00,
2013-12-07 05:38:00,-0.7,-4.9,30.75,NNW,341,6.0,9.0,82,0.00,,,0.00,Wunderground v.1.15,2013-12-07 11:38:00,
2013-12-07 05:43:00,-0.8,-5.0,30.76,NNW,335,5.0,7.0,82,0.00,,,0.00,Wunderground v.1.15,2013-12-07 11:43:00,
2013-12-07 05:48:00,-0.8,-5.0,30.76,NW,319,5.0,7.0,82,0.00,,,0.00,Wunderground v.1.15,2013-12-07 11:48:00,
2013-12-07 05:53:00,-0.9,-5.1,30.76,NW,317,5.0,7.0,82,0.00,,,0.00,Wunderground v.1.15,2013-12-07 11:53:00,
2013-12-07 05:58:00,-0.9,-5.1,30.76,NW,319,5.0,8.0,82,0.00,,,0.00,Wunderground v.1.15,2013-12-07 11:58:00,
2013-12-07 06:03:00,-1.0,-5.2,30.77,NW,324,6.0,6.0,82,0.00,,,0.00,Wunderground v.1.15,2013-12-07 12:03:00,
2013-12-07 06:08:00,-1.1,-5.3,30.77,NW,320,6.0,8.0,82,0.00,,,0.00,Wunderground v.1.15,2013-12-07 12:08:00,
2013-12-07 06:13:00,-1.1,-5.3,30.76,NNW,337,5.0,7.0,82,0.00,,,0.00,Wunderground v.1.15,2013-12-07 12:13:00,
2013-12-07 06:18:00,-1.2,-5.4,30.76,NW,323,5.0,9.0,82,0.00,,,0.00,Wunderground v.1.15,2013-12-07 12:18:00,
2013-12-07 06:23:00,-1.2,-5.4,30.77,NNW,329,5.0,6.0,82,0.00,,,0.00,Wunderground v.1.15,2013-12-07 12:23:00,
2013-12-07 06:28:00,-1.3,-5.5,30.77,NNW,331,5.0,7.0,82,0.00,,,0.00,Wunderground v.1.15,2013-12-07 12:28:00,
2013-12-07 06:33:00,-1.4,-5.6,30.77,NNW,327,4.0,6.0,82,0.00,,,0.00,Wunderground v.1.15,2013-12-07 12:33:00,
2013-12-07 06:38:00,-1.4,-5.6,30.77,NNW,331,4.0,6.0,82,0.00,,,0.00,Wunderground v.1.15,2013-12-07 12:38:00,
2013-12-07 06:43:00,-1.6,-5.5,30.77,NW,324,4.0,4.0,83,0.00,,,0.00,Wunderground v.1.15,2013-12-07 12:43:00,
2013-12-07 06:48:00,-1.6,-5.5,30.77,NNW,329,3.0,5.0,83,0.00,,,0.00,Wunderground v.1.15,2013-12-07 12:48:00,
2013-12-07 06:53:00,-1.7,-5.6,30.77,NW,326,4.0,5.0,83,0.00,,,0.00,Wunderground v.1.15,2013-12-07 12:53:00,
2013-12-07 06:58:00,-1.9,-5.8,30.77,NW,326,5.0,5.0,83,0.00,,,0.00,Wunderground v.1.15,2013-12-07 12:58:00,
2013-12-07 07:03:00,-2.1,-6.0,30.77,NW,321,4.0,4.0,83,0.00,,,0.00,Wunderground v.1.15,2013-12-07 13:03:00,
2013-12-07 07:08:00,-2.2,-6.1,30.77,NW,321,3.0,4.0,83,0.00,,,0.00,Wunderground v.1.15,2013-12-07 13:08:00,
2013-12-07 07:13:00,-2.4,-6.3,30.77,NW,326,3.0,5.0,83,0.00,,,0.00,Wunderground v.1.15,2013-12-07 13:13:00,
2013-12-07 07:18:00,-2.4,-6.3,30.77,NW,324,4.0,5.0,83,0.00,,,0.00,Wunderground v.1.15,2013-12-07 13:18:00,
2013-12-07 07:23:00,-2.4,-6.3,30.77,NW,326,3.0,5.0,83,0.00,,,0.00,Wunderground v.1.15,2013-12-07 13:23:00,
2013-12-07 07:28:00,-2.3,-5.9,30.77,NNW,331,3.0,6.0,84,0.00,,,0.00,Wunderground v.1.15,2013-12-07 13:28:00,
2013-12-07 07:33:00,-2.3,-5.9,30.77,NNW,331,3.0,5.0,84,0.00,,,0.00,Wunderground v.1.15,2013-12-07 13:33:00,
2013-12-07 07:38:00,-2.1,-5.7,30.77,NNW,331,4.0,6.0,84,0.00,,,0.00,Wunderground v.1.15,2013-12-07 13:38:00,
2013-12-07 07:43:00,-2.1,-5.7,30.76,NNW,338,5.0,7.0,84,0.00,,,0.00,Wunderground v.1.15,2013-12-07 13:43:00,
2013-12-07 07:48:00,-1.9,-5.6,30.76,NNW,332,5.0,7.0,84,0.00,,,0.00,Wunderground v.1.15,2013-12-07 13:48:00,
2013-12-07 07:53:00,-1.7,-5.4,30.77,NNW,331,5.0,7.0,84,0.00,,,0.00,Wunderground v.1.15,2013-12-07 13:53:00,
2013-12-07 07:58:00,-1.6,-5.3,30.77,NW,313,5.0,8.0,84,0.00,,,0.00,Wunderground v.1.15,2013-12-07 13:58:00,
2013-12-07 08:03:00,-1.4,-5.1,30.77,NW,326,5.0,6.0,84,0.00,,,0.00,Wunderground v.1.15,2013-12-07 14:03:00,
2013-12-07 08:08:00,-1.1,-4.8,30.77,NNW,328,7.0,8.0,84,0.00,,,0.00,Wunderground v.1.15,2013-12-07 14:08:00,
2013-12-07 08:13:00,-0.9,-4.6,30.78,NNW,336,6.0,8.0,84,0.00,,,0.00,Wunderground v.1.15,2013-12-07 14:13:00,
2013-12-07 08:18:00,-0.7,-4.4,30.78,NNW,332,5.0,9.0,84,0.00,,,0.00,Wunderground v.1.15,2013-12-07 14:18:00,
2013-12-07 08:23:00,-0.5,-4.2,30.78,NNW,328,6.0,7.0,84,0.00,,,0.00,Wunderground v.1.15,2013-12-07 14:23:00,
2013-12-07 08:28:00,-0.3,-4.2,30.78,NNW,339,6.0,9.0,83,0.00,,,0.00,Wunderground v.1.15,2013-12-07 14:28:00,
2013-12-07 08:33:00,-0.1,-4.0,30.79,NNW,342,7.0,9.0,83,0.00,,,0.00,Wunderground v.1.15,2013-12-07 14:33:00,
2013-12-07 08:38:00,0.2,-3.7,30.78,NNW,340,10.0,11.0,83,0.00,,,0.00,Wunderground v.1.15,2013-12-07 14:38:00,
2013-12-07 08:43:00,0.4,-3.5,30.79,NNW,348,6.0,9.0,83,0.00,,,0.00,Wunderground v.1.15,2013-12-07 14:43:00,
2013-12-07 08:48:00,0.7,-3.5,30.79,NNW,346,6.0,10.0,82,0.00,,,0.00,Wunderground v.1.15,2013-12-07 14:48:00,
2013-12-07 08:54:00,0.9,-3.3,30.79,NNW,331,6.0,12.0,82,0.00,,,0.00,Wunderground v.1.15,2013-12-07 14:54:00,
2013-12-07 08:59:00,1.1,-3.1,30.79,NNW,345,10.0,12.0,82,0.00,,,0.00,Wunderground v.1.15,2013-12-07 14:59:00,
2013-12-07 09:04:00,1.4,-2.8,30.80,NNW,332,6.0,9.0,82,0.00,,,0.00,Wunderground v.1.15,2013-12-07 15:04:00,
2013-12-07 09:09:00,1.6,-2.9,30.80,NNW,338,9.0,10.0,81,0.00,,,0.00,Wunderground v.1.15,2013-12-07 15:09:00,
2013-12-07 09:14:00,1.8,-2.7,30.80,NNW,332,8.0,9.0,81,0.00,,,0.00,Wunderground v.1.15,2013-12-07 15:14:00,
2013-12-07 09:19:00,2.0,-2.5,30.80,NNW,348,8.0,10.0,81,0.00,,,0.00,Wunderground v.1.15,2013-12-07 15:19:00,
2013-12-07 09:24:00,2.0,-2.8,30.81,North,360,7.0,8.0,80,0.00,,,0.00,Wunderground v.1.15,2013-12-07 15:24:00,
2013-12-07 09:29:00,2.4,-2.1,30.81,NNW,335,6.0,9.0,81,0.00,,,0.00,Wunderground v.1.15,2013-12-07 15:29:00,
2013-12-07 09:34:00,2.7,-1.8,30.81,NNW,331,6.0,8.0,81,0.00,,,0.00,Wunderground v.1.15,2013-12-07 15:34:00,
2013-12-07 09:39:00,3.0,-1.8,30.82,NNW,340,7.0,9.0,80,0.00,,,0.00,Wunderground v.1.15,2013-12-07 15:39:00,
2013-12-07 09:44:00,3.1,-1.7,30.82,WNW,303,6.0,8.0,80,0.00,,,0.00,Wunderground v.1.15,2013-12-07 15:44:00,
2013-12-07 09:49:00,3.3,-1.5,30.81,NNW,330,7.0,9.0,80,0.00,,,0.00,Wunderground v.1.15,2013-12-07 15:49:00,
2013-12-07 09:54:00,3.7,-1.1,30.81,NW,312,7.0,8.0,80,0.00,,,0.00,Wunderground v.1.15,2013-12-07 15:54:00,
2013-12-07 09:59:00,3.8,-1.0,30.81,NNW,331,5.0,11.0,80,0.00,,,0.00,Wunderground v.1.15,2013-12-07 15:59:00,
2013-12-07 10:04:00,4.0,-1.1,30.81,NNW,337,8.0,10.0,79,0.00,,,0.00,Wunderground v.1.15,2013-12-07 16:04:00,
2013-12-07 10:09:00,4.4,-0.4,30.81,NW,317,5.0,8.0,80,0.00,,,0.00,Wunderground v.1.15,2013-12-07 16:09:00,
2013-12-07 10:14:00,4.6,-0.5,30.80,North,355,8.0,10.0,79,0.00,,,0.00,Wunderground v.1.15,2013-12-07 16:14:00,
2013-12-07 10:19:00,4.9,-0.2,30.80,North,349,5.0,10.0,79,0.00,,,0.00,Wunderground v.1.15,2013-12-07 16:19:00,
2013-12-07 10:24:00,5.2,0.1,30.81,NNW,329,5.0,8.0,79,0.00,,,0.00,Wunderground v.1.15,2013-12-07 16:24:00,
2013-12-07 10:29:00,5.3,-0.3,30.81,NNW,343,4.0,8.0,77,0.00,,,0.00,Wunderground v.1.15,2013-12-07 16:29:00,
2013-12-07 10:34:00,5.9,0.5,30.80,NW,325,4.0,6.0,78,0.00,,,0.00,Wunderground v.1.15,2013-12-07 16:34:00,
2013-12-07 10:39:00,6.3,0.9,30.80,North,360,3.0,6.0,78,0.00,,,0.00,Wunderground v.1.15,2013-12-07 16:39:00,
2013-12-07 10:44:00,6.5,0.8,30.80,NNW,348,4.0,5.0,77,0.00,,,0.00,Wunderground v.1.15,2013-12-07 16:44:00,
2013-12-07 10:49:00,6.7,1.0,30.81,NNW,336,5.0,5.0,77,0.00,,,0.00,Wunderground v.1.15,2013-12-07 16:49:00,
2013-12-07 10:54:00,7.0,1.0,30.80,North,5,3.0,4.0,76,0.00,,,0.00,Wunderground v.1.15,2013-12-07 16:54:00,
2013-12-07 10:59:00,7.2,1.2,30.80,North,10,4.0,6.0,76,0.00,,,0.00,Wunderground v.1.15,2013-12-07 16:59:00,
2013-12-07 11:04:00,7.4,1.1,30.80,NNW,344,5.0,5.0,75,0.00,,,0.00,Wunderground v.1.15,2013-12-07 17:04:00,
2013-12-07 11:09:00,7.7,1.1,30.80,North,355,0.0,4.0,74,0.00,,,0.00,Wunderground v.1.15,2013-12-07 17:09:00,
2013-12-07 11:15:00,8.0,1.1,30.80,North,350,5.0,7.0,73,0.00,,,0.00,Wunderground v.1.15,2013-12-07 17:15:00,
2013-12-07 11:20:00,8.2,1.6,30.79,North,360,3.0,7.0,74,0.00,,,0.00,Wunderground v.1.15,2013-12-07 17:20:00,
2013-12-07 11:25:00,8.4,1.5,30.79,NW,323,4.0,8.0,73,0.00,,,0.00,Wunderground v.1.15,2013-12-07 17:25:00,
2013-12-07 11:30:00,8.7,1.8,30.79,North,5,5.0,8.0,73,0.00,,,0.00,Wunderground v.1.15,2013-12-07 17:30:00,
2013-12-07 11:35:00,8.8,1.6,30.78,NW,324,7.0,9.0,72,0.00,,,0.00,Wunderground v.1.15,2013-12-07 17:35:00,
2013-12-07 11:40:00,9.0,1.8,30.78,NW,320,3.0,9.0,72,0.00,,,0.00,Wunderground v.1.15,2013-12-07 17:40:00,
2013-12-07 11:45:00,9.1,1.9,30.78,NW,314,3.0,7.0,72,0.00,,,0.00,Wunderground v.1.15,2013-12-07 17:45:00,
2013-12-07 11:50:00,9.2,2.0,30.78,NNW,346,6.0,8.0,72,0.00,,,0.00,Wunderground v.1.15,2013-12-07 17:50:00,
2013-12-07 11:55:00,9.3,1.8,30.78,WNW,293,4.0,6.0,71,0.00,,,0.00,Wunderground v.1.15,2013-12-07 17:55:00,
2013-12-07 12:00:00,9.5,1.7,30.78,WNW,296,5.0,5.0,70,0.00,,,0.00,Wunderground v.1.15,2013-12-07 18:00:00,
2013-12-07 12:05:00,9.6,1.5,30.78,NW,316,1.0,6.0,69,0.00,,,0.00,Wunderground v.1.15,2013-12-07 18:05:00,
2013-12-07 12:10:00,9.9,1.8,30.77,WNW,296,1.0,5.0,69,0.00,,,0.00,Wunderground v.1.15,2013-12-07 18:10:00,
2013-12-07 12:15:00,10.1,2.3,30.78,WSW,258,7.0,8.0,70,0.00,,,0.00,Wunderground v.1.15,2013-12-07 18:15:00,
2013-12-07 12:20:00,10.5,2.6,30.77,NNW,348,5.0,8.0,70,0.00,,,0.00,Wunderground v.1.15,2013-12-07 18:20:00,
2013-12-07 12:25:00,10.7,2.2,30.77,NNW,334,3.0,7.0,68,0.00,,,0.00,Wunderground v.1.15,2013-12-07 18:25:00,
2013-12-07 12:30:00,11.0,2.5,30.77,NNW,332,4.0,7.0,68,0.00,,,0.00,Wunderground v.1.15,2013-12-07 18:30:00,
2013-12-07 12:35:00,11.1,2.3,30.76,NW,316,6.0,7.0,67,0.00,,,0.00,Wunderground v.1.15,2013-12-07 18:35:00,
2013-12-07 12:40:00,11.2,2.4,30.76,West,279,3.0,7.0,67,0.00,,,0.00,Wunderground v.1.15,2013-12-07 18:40:00,
2013-12-07 12:45:00,11.5,3.0,30.76,WNW,297,7.0,8.0,68,0.00,,,0.00,Wunderground v.1.15,2013-12-07 18:45:00,
2013-12-07 12:50:00,11.6,2.4,30.75,NW,325,5.0,9.0,66,0.00,,,0.00,Wunderground v.1.15,2013-12-07 18:50:00,
2013-12-07 12:55:00,11.6,2.1,30.75,NNW,332,3.0,8.0,65,0.00,,,0.00,Wunderground v.1.15,2013-12-07 18:55:00,
2013-12-07 13:00:00,11.9,3.0,30.75,NNW,330,4.0,8.0,67,0.00,,,0.00,Wunderground v.1.15,2013-12-07 19:00:00,
2013-12-07 13:05:00,12.1,2.9,30.75,WNW,289,7.0,8.0,66,0.00,,,0.00,Wunderground v.1.15,2013-12-07 19:05:00,
2013-12-07 13:10:00,12.0,2.1,30.75,WNW,287,6.0,7.0,64,0.00,,,0.00,Wunderground v.1.15,2013-12-07 19:10:00,
2013-12-07 13:15:00,12.1,2.6,30.75,North,355,5.0,7.0,65,0.00,,,0.00,Wunderground v.1.15,2013-12-07 19:15:00,
2013-12-07 13:20:00,12.2,2.3,30.75,NNW,329,9.0,12.0,64,0.00,,,0.00,Wunderground v.1.15,2013-12-07 19:20:00,
2013-12-07 13:25:00,12.1,2.2,30.74,NNW,328,7.0,8.0,64,0.00,,,0.00,Wunderground v.1.15,2013-12-07 19:25:00,
2013-12-07 13:30:00,12.1,1.9,30.74,NW,324,6.0,11.0,63,0.00,,,0.00,Wunderground v.1.15,2013-12-07 19:30:00,
2013-12-07 13:35:00,12.1,1.9,30.73,NNW,335,9.0,9.0,63,0.00,,,0.00,Wunderground v.1.15,2013-12-07 19:35:00,
2013-12-07 13:40:00,12.1,1.9,30.74,NW,317,6.0,10.0,63,0.00,,,0.00,Wunderground v.1.15,2013-12-07 19:40:00,
2013-12-07 13:45:00,12.2,2.0,30.74,NW,309,9.0,9.0,63,0.00,,,0.00,Wunderground v.1.15,2013-12-07 19:45:00,
2013-12-07 13:50:00,12.3,2.1,30.73,NW,316,4.0,11.0,63,0.00,,,0.00,Wunderground v.1.15,2013-12-07 19:50:00,
2013-12-07 13:55:00,12.4,2.2,30.73,NW,323,7.0,10.0,63,0.00,,,0.00,Wunderground v.1.15,2013-12-07 19:55:00,
2013-12-07 14:00:00,12.7,2.1,30.73,NNW,340,6.0,8.0,62,0.00,,,0.00,Wunderground v.1.15,2013-12-07 20:00:00,
2013-12-07 14:05:00,12.8,1.9,30.73,NNW,333,8.0,10.0,61,0.00,,,0.00,Wunderground v.1.15,2013-12-07 20:05:00,
2013-12-07 14:10:00,12.9,2.3,30.73,NW,315,7.0,9.0,62,0.00,,,0.00,Wunderground v.1.15,2013-12-07 20:10:00,
2013-12-07 14:15:00,13.0,2.1,30.73,North,355,7.0,9.0,61,0.00,,,0.00,Wunderground v.1.15,2013-12-07 20:15:00,
2013-12-07 14:20:00,13.1,2.2,30.73,NNW,345,8.0,10.0,61,0.00,,,0.00,Wunderground v.1.15,2013-12-07 20:20:00,
2013-12-07 14:25:00,13.2,2.3,30.73,North,355,7.0,9.0,61,0.00,,,0.00,Wunderground v.1.15,2013-12-07 20:25:00,
2013-12-07 14:30:00,13.5,2.5,30.72,North,5,7.0,9.0,61,0.00,,,0.00,Wunderground v.1.15,2013-12-07 20:30:00,
2013-12-07 14:35:00,13.6,2.3,30.72,NNW,338,8.0,11.0,60,0.00,,,0.00,Wunderground v.1.15,2013-12-07 20:35:00,
2013-12-07 14:40:00,13.7,2.0,30.71,NNW,341,4.0,11.0,59,0.00,,,0.00,Wunderground v.1.15,2013-12-07 20:40:00,
2013-12-07 14:45:00,13.8,2.5,30.71,North,355,9.0,9.0,60,0.00,,,0.00,Wunderground v.1.15,2013-12-07 20:45:00,
2013-12-07 14:50:00,13.6,1.5,30.71,NNW,333,5.0,9.0,58,0.00,,,0.00,Wunderground v.1.15,2013-12-07 20:50:00,
2013-12-07 14:55:00,13.4,1.4,30.71,North,355,8.0,9.0,58,0.00,,,0.00,Wunderground v.1.15,2013-12-07 20:55:00,
2013-12-07 15:00:00,13.2,1.5,30.70,North,355,7.0,7.0,59,0.00,,,0.00,Wunderground v.1.15,2013-12-07 21:00:00,
2013-12-07 15:05:00,13.1,1.4,30.70,North,355,6.0,7.0,59,0.00,,,0.00,Wunderground v.1.15,2013-12-07 21:05:00,
2013-12-07 15:10:00,13.1,1.8,30.70,NNE,24,7.0,8.0,60,0.00,,,0.00,Wunderground v.1.15,2013-12-07 21:10:00,
2013-12-07 15:15:00,13.2,2.3,30.69,NNE,13,8.0,8.0,61,0.00,,,0.00,Wunderground v.1.15,2013-12-07 21:15:00,
2013-12-07 15:20:00,13.3,2.3,30.69,North,5,5.0,10.0,61,0.00,,,0.00,Wunderground v.1.15,2013-12-07 21:20:00,
2013-12-07 15:25:00,13.3,2.3,30.69,North,355,8.0,8.0,61,0.00,,,0.00,Wunderground v.1.15,2013-12-07 21:25:00,
2013-12-07 15:30:00,13.2,2.3,30.69,NNE,12,4.0,9.0,61,0.00,,,0.00,Wunderground v.1.15,2013-12-07 21:30:00,
2013-12-07 15:35:00,13.4,2.8,30.69,North,5,5.0,7.0,62,0.00,,,0.00,Wunderground v.1.15,2013-12-07 21:35:00,
2013-12-07 15:40:00,13.4,2.8,30.69,North,10,9.0,10.0,62,0.00,,,0.00,Wunderground v.1.15,2013-12-07 21:40:00,
2013-12-07 15:45:00,13.3,2.3,30.69,NNE,25,4.0,9.0,61,0.00,,,0.00,Wunderground v.1.15,2013-12-07 21:45:00,
2013-12-07 15:50:00,13.2,2.6,30.68,North,5,6.0,9.0,62,0.00,,,0.00,Wunderground v.1.15,2013-12-07 21:50:00,
2013-12-07 15:55:00,13.2,2.9,30.68,NNE,31,3.0,9.0,63,0.00,,,0.00,Wunderground v.1.15,2013-12-07 21:55:00,
2013-12-07 16:00:00,13.1,2.5,30.68,NNE,19,4.0,9.0,62,0.00,,,0.00,Wunderground v.1.15,2013-12-07 22:00:00,
2013-12-07 16:05:00,12.6,1.7,30.68,North,5,7.0,9.0,61,0.00,,,0.00,Wunderground v.1.15,2013-12-07 22:05:00,
2013-12-07 16:10:00,12.4,2.2,30.68,North,360,4.0,9.0,63,0.00,,,0.00,Wunderground v.1.15,2013-12-07 22:10:00,
2013-12-07 16:16:00,12.3,2.4,30.68,North,9,5.0,8.0,64,0.00,,,0.00,Wunderground v.1.15,2013-12-07 22:16:00,
2013-12-07 16:22:00,12.0,1.8,30.68,NNE,21,3.0,5.0,63,0.00,,,0.00,Wunderground v.1.15,2013-12-07 22:22:00,
2013-12-07 16:27:00,11.8,2.0,30.67,NNE,17,1.0,7.0,64,0.00,,,0.00,Wunderground v.1.15,2013-12-07 22:27:00,
2013-12-07 16:32:00,11.5,2.0,30.67,NNE,12,0.0,2.0,65,0.00,,,0.00,Wunderground v.1.15,2013-12-07 22:32:00,
2013-12-07 16:37:00,11.2,1.7,30.67,NNE,22,0.0,3.0,65,0.00,,,0.00,Wunderground v.1.15,2013-12-07 22:37:00,
2013-12-07 16:53:00,10.4,1.9,30.66,NNE,13,2.0,2.0,68,0.00,,,0.00,Wunderground v.1.15,2013-12-07 22:53:00,
2013-12-07 16:58:00,10.1,1.9,30.66,North,9,3.0,3.0,69,0.00,,,0.00,Wunderground v.1.15,2013-12-07 22:58:00,
2013-12-07 17:03:00,9.7,1.9,30.66,NNE,13,3.0,4.0,70,0.00,,,0.00,Wunderground v.1.15,2013-12-07 23:03:00,
2013-12-07 17:08:00,9.4,1.9,30.66,NNE,19,2.0,5.0,71,0.00,,,0.00,Wunderground v.1.15,2013-12-07 23:08:00,
2013-12-07 17:13:00,9.1,1.9,30.65,NNE,18,2.0,3.0,72,0.00,,,0.00,Wunderground v.1.15,2013-12-07 23:13:00,
2013-12-07 17:18:00,8.8,1.6,30.66,North,10,2.0,4.0,72,0.00,,,0.00,Wunderground v.1.15,2013-12-07 23:18:00,
2013-12-07 17:23:00,8.6,1.7,30.66,NNE,23,1.0,2.0,73,0.00,,,0.00,Wunderground v.1.15,2013-12-07 23:23:00,
2013-12-07 17:28:00,8.4,1.8,30.66,NNE,23,0.0,2.0,74,0.00,,,0.00,Wunderground v.1.15,2013-12-07 23:28:00,
2013-12-07 17:33:00,8.3,1.7,30.66,NNE,23,0.0,0.0,74,0.00,,,0.00,Wunderground v.1.15,2013-12-07 23:33:00,
2013-12-07 17:38:00,8.1,1.5,30.66,NNE,23,0.0,0.0,74,0.00,,,0.00,Wunderground v.1.15,2013-12-07 23:38:00,
2013-12-07 17:43:00,8.0,1.4,30.67,NNE,23,0.0,0.0,74,0.00,,,0.00,Wunderground v.1.15,2013-12-07 23:43:00,
2013-12-07 17:48:00,7.8,1.2,30.66,NNE,23,0.0,0.0,74,0.00,,,0.00,Wunderground v.1.15,2013-12-07 23:48:00,
2013-12-07 17:53:00,7.7,1.1,30.66,NNE,23,0.0,0.0,74,0.00,,,0.00,Wunderground v.1.15,2013-12-07 23:53:00,
2013-12-07 17:58:00,7.5,1.2,30.66,NNE,23,0.0,0.0,75,0.00,,,0.00,Wunderground v.1.15,2013-12-07 23:58:00,
2013-12-07 18:03:00,7.3,1.3,30.66,NNE,23,1.0,2.0,76,0.00,,,0.00,Wunderground v.1.15,2013-12-08 00:03:00,
2013-12-07 18:08:00,7.1,1.1,30.65,NNE,23,0.0,2.0,76,0.00,,,0.00,Wunderground v.1.15,2013-12-08 00:08:00,
2013-12-07 18:14:00,7.0,1.0,30.65,NNE,23,0.0,0.0,76,0.00,,,0.00,Wunderground v.1.15,2013-12-08 00:14:00,
2013-12-07 18:19:00,6.9,0.9,30.66,NNE,23,0.0,0.0,76,0.00,,,0.00,Wunderground v.1.15,2013-12-08 00:19:00,
2013-12-07 18:24:00,6.8,1.1,30.66,NNE,23,0.0,0.0,77,0.00,,,0.00,Wunderground v.1.15,2013-12-08 00:24:00,
2013-12-07 18:29:00,6.8,1.1,30.66,NNE,23,0.0,0.0,77,0.00,,,0.00,Wunderground v.1.15,2013-12-08 00:29:00,
2013-12-07 18:34:00,6.8,1.1,30.66,NNE,23,0.0,0.0,77,0.00,,,0.00,Wunderground v.1.15,2013-12-08 00:34:00,
2013-12-07 18:38:00,6.8,1.1,30.66,NNE,23,0.0,0.0,77,0.00,,,0.00,Wunderground v.1.15,2013-12-08 00:38:00,
2013-12-07 18:44:00,6.5,0.8,30.66,NNE,23,0.0,0.0,77,0.00,,,0.00,Wunderground v.1.15,2013-12-08 00:44:00,
2013-12-07 18:49:00,6.4,0.7,30.66,NNE,23,0.0,0.0,77,0.00,,,0.00,Wunderground v.1.15,2013-12-08 00:49:00,
2013-12-07 18:54:00,6.3,0.6,30.65,NNE,23,0.0,0.0,77,0.00,,,0.00,Wunderground v.1.15,2013-12-08 00:54:00,
2013-12-07 18:59:00,6.2,0.8,30.65,NNE,23,1.0,1.0,78,0.00,,,0.00,Wunderground v.1.15,2013-12-08 00:59:00,
2013-12-07 19:04:00,6.2,0.8,30.65,NNE,23,0.0,0.0,78,0.00,,,0.00,Wunderground v.1.15,2013-12-08 01:04:00,
2013-12-07 19:09:00,6.3,0.9,30.65,NNE,23,0.0,0.0,78,0.00,,,0.00,Wunderground v.1.15,2013-12-08 01:09:00,
2013-12-07 19:14:00,6.4,1.3,30.65,NNE,25,1.0,2.0,79,0.00,,,0.00,Wunderground v.1.15,2013-12-08 01:14:00,
2013-12-07 19:19:00,6.7,1.6,30.65,NNE,25,0.0,2.0,79,0.00,,,0.00,Wunderground v.1.15,2013-12-08 01:19:00,
2013-12-07 19:24:00,6.9,1.8,30.65,NNE,25,0.0,0.0,79,0.00,,,0.00,Wunderground v.1.15,2013-12-08 01:24:00,
2013-12-07 19:29:00,7.2,2.3,30.64,NNE,25,0.0,1.0,80,0.00,,,0.00,Wunderground v.1.15,2013-12-08 01:29:00,
2013-12-07 19:34:00,7.4,2.5,30.64,NNE,25,0.0,1.0,80,0.00,,,0.00,Wunderground v.1.15,2013-12-08 01:34:00,
2013-12-07 19:39:00,7.8,2.9,30.64,NNE,26,0.0,1.0,80,0.00,,,0.00,Wunderground v.1.15,2013-12-08 01:39:00,
2013-12-07 19:44:00,8.1,3.2,30.64,NNE,30,0.0,1.0,80,0.00,,,0.00,Wunderground v.1.15,2013-12-08 01:44:00,
2013-12-07 19:49:00,8.4,3.5,30.64,NNE,31,0.0,1.0,80,0.00,,,0.00,Wunderground v.1.15,2013-12-08 01:49:00,
2013-12-07 19:54:00,8.7,3.5,30.64,NE,34,1.0,2.0,79,0.00,,,0.00,Wunderground v.1.15,2013-12-08 01:54:00,
2013-12-07 19:59:00,8.9,3.7,30.64,ENE,59,1.0,2.0,79,0.00,,,0.00,Wunderground v.1.15,2013-12-08 01:59:00,
2013-12-07 20:04:00,9.1,3.6,30.64,NE,44,1.0,2.0,78,0.00,,,0.00,Wunderground v.1.15,2013-12-08 02:04:00,
2013-12-07 20:09:00,9.3,3.8,30.64,NE,43,0.0,1.0,78,0.00,,,0.00,Wunderground v.1.15,2013-12-08 02:09:00,
2013-12-07 20:14:00,9.4,3.9,30.65,NE,49,1.0,1.0,78,0.00,,,0.00,Wunderground v.1.15,2013-12-08 02:14:00,
2013-12-07 20:19:00,9.5,4.0,30.65,NE,52,0.0,2.0,78,0.00,,,0.00,Wunderground v.1.15,2013-12-08 02:19:00,
2013-12-07 20:24:00,9.7,4.2,30.65,NE,55,0.0,1.0,78,0.00,,,0.00,Wunderground v.1.15,2013-12-08 02:24:00,
2013-12-07 20:29:00,9.8,4.3,30.65,NE,49,1.0,1.0,78,0.00,,,0.00,Wunderground v.1.15,2013-12-08 02:29:00,
2013-12-07 20:34:00,9.9,4.1,30.65,NE,53,0.0,0.0,77,0.00,,,0.00,Wunderground v.1.15,2013-12-08 02:34:00,
2013-12-07 20:39:00,10.0,4.2,30.65,NE,55,0.0,1.0,77,0.00,,,0.00,Wunderground v.1.15,2013-12-08 02:39:00,
2013-12-07 20:44:00,10.0,4.2,30.65,NE,55,0.0,1.0,77,0.00,,,0.00,Wunderground v.1.15,2013-12-08 02:44:00,
2013-12-07 20:49:00,10.1,4.3,30.66,NE,46,1.0,2.0,77,0.00,,,0.00,Wunderground v.1.15,2013-12-08 02:49:00,
2013-12-07 20:54:00,10.2,4.1,30.66,NE,46,0.0,1.0,76,0.00,,,0.00,Wunderground v.1.15,2013-12-08 02:54:00,
2013-12-07 20:59:00,10.2,4.1,30.66,NE,46,0.0,1.0,76,0.00,,,0.00,Wunderground v.1.15,2013-12-08 02:59:00,
2013-12-07 21:04:00,10.3,4.2,30.66,NE,46,0.0,1.0,76,0.00,,,0.00,Wunderground v.1.15,2013-12-08 03:04:00,
2013-12-07 21:09:00,10.2,3.8,30.66,NE,48,1.0,1.0,75,0.00,,,0.00,Wunderground v.1.15,2013-12-08 03:09:00,
2013-12-07 21:14:00,10.2,3.8,30.65,ENE,60,1.0,2.0,75,0.00,,,0.00,Wunderground v.1.15,2013-12-08 03:14:00,
2013-12-07 21:19:00,10.3,3.9,30.65,NE,40,1.0,2.0,75,0.00,,,0.00,Wunderground v.1.15,2013-12-08 03:19:00,
2013-12-07 21:24:00,10.3,3.9,30.64,ENE,64,2.0,2.0,75,0.00,,,0.00,Wunderground v.1.15,2013-12-08 03:24:00,
2013-12-07 21:29:00,10.3,3.9,30.64,East,79,2.0,3.0,75,0.00,,,0.00,Wunderground v.1.15,2013-12-08 03:29:00,
2013-12-07 21:34:00,10.4,4.0,30.64,ENE,74,0.0,3.0,75,0.00,,,0.00,Wunderground v.1.15,2013-12-08 03:34:00,
2013-12-07 21:39:00,10.4,4.0,30.64,East,80,2.0,3.0,75,0.00,,,0.00,Wunderground v.1.15,2013-12-08 03:39:00,
2013-12-07 21:44:00,10.4,4.0,30.64,East,80,0.0,2.0,75,0.00,,,0.00,Wunderground v.1.15,2013-12-08 03:44:00,
2013-12-07 21:49:00,10.4,4.0,30.64,ENE,76,1.0,3.0,75,0.00,,,0.00,Wunderground v.1.15,2013-12-08 03:49:00,
2013-12-07 21:54:00,10.5,4.1,30.64,ENE,75,1.0,3.0,75,0.00,,,0.00,Wunderground v.1.15,2013-12-08 03:54:00,
2013-12-07 21:59:00,10.5,4.1,30.64,ENE,75,2.0,3.0,75,0.00,,,0.00,Wunderground v.1.15,2013-12-08 03:59:00,
2013-12-07 22:04:00,10.6,4.2,30.64,East,79,1.0,2.0,75,0.00,,,0.00,Wunderground v.1.15,2013-12-08 04:04:00,
2013-12-07 22:09:00,10.6,4.2,30.64,ENE,65,3.0,3.0,75,0.00,,,0.00,Wunderground v.1.15,2013-12-08 04:09:00,
2013-12-07 22:14:00,10.7,4.6,30.64,ENE,76,1.0,3.0,76,0.00,,,0.00,Wunderground v.1.15,2013-12-08 04:14:00,
2013-12-07 22:19:00,10.8,4.7,30.64,East,79,2.0,4.0,76,0.00,,,0.00,Wunderground v.1.15,2013-12-08 04:19:00,
2013-12-07 22:24:00,10.8,4.7,30.65,ENE,71,1.0,2.0,76,0.00,,,0.00,Wunderground v.1.15,2013-12-08 04:24:00,
2013-12-07 22:29:00,10.8,4.4,30.64,East,83,2.0,3.0,75,0.00,,,0.00,Wunderground v.1.15,2013-12-08 04:29:00,
2013-12-07 22:34:00,10.8,4.4,30.64,East,82,1.0,2.0,75,0.00,,,0.00,Wunderground v.1.15,2013-12-08 04:34:00,
2013-12-07 22:39:00,10.8,4.4,30.64,East,79,1.0,2.0,75,0.00,,,0.00,Wunderground v.1.15,2013-12-08 04:39:00,
2013-12-07 22:44:00,10.8,4.4,30.64,East,84,2.0,2.0,75,0.00,,,0.00,Wunderground v.1.15,2013-12-08 04:44:00,
2013-12-07 22:49:00,10.9,4.5,30.64,East,85,1.0,3.0,75,0.00,,,0.00,Wunderground v.1.15,2013-12-08 04:49:00,
2013-12-07 22:54:00,10.9,4.5,30.64,East,82,1.0,2.0,75,0.00,,,0.00,Wunderground v.1.15,2013-12-08 04:54:00,
2013-12-07 22:59:00,10.9,4.5,30.64,ENE,78,2.0,3.0,75,0.00,,,0.00,Wunderground v.1.15,2013-12-08 04:59:00,
2013-12-07 23:02:00,11.0,4.6,30.64,East,84,1.0,1.0,75,0.00,,,0.00,Wunderground v.1.15,2013-12-08 05:02:00,
2013-12-07 23:03:00,11.0,4.6,30.64,East,84,1.0,1.0,75,0.00,,,0.00,Wunderground v.1.15,2013-12-08 05:03:00,
2013-12-07 23:08:00,11.0,4.6,30.64,East,84,0.0,3.0,75,0.00,,,0.00,Wunderground v.1.15,2013-12-08 05:08:00,
2013-12-07 23:13:00,11.1,4.7,30.65,East,84,0.0,1.0,75,0.00,,,0.00,Wunderground v.1.15,2013-12-08 05:13:00,
2013-12-07 23:18:00,11.1,4.7,30.65,East,84,1.0,1.0,75,0.00,,,0.00,Wunderground v.1.15,2013-12-08 05:18:00,
2013-12-07 23:23:00,11.2,4.8,30.65,East,84,1.0,2.0,75,0.00,,,0.00,Wunderground v.1.15,2013-12-08 05:23:00,
2013-12-07 23:28:00,11.2,4.8,30.65,East,84,0.0,2.0,75,0.00,,,0.00,Wunderground v.1.15,2013-12-08 05:28:00,
2013-12-07 23:33:00,11.2,4.8,30.64,East,84,1.0,2.0,75,0.00,,,0.00,Wunderground v.1.15,2013-12-08 05:33:00,
2013-12-07 23:38:00,11.2,4.8,30.63,East,86,1.0,2.0,75,0.00,,,0.00,Wunderground v.1.15,2013-12-08 05:38:00,
2013-12-07 23:43:00,11.3,4.9,30.63,East,86,2.0,2.0,75,0.00,,,0.00,Wunderground v.1.15,2013-12-08 05:43:00,
2013-12-07 23:48:00,11.3,5.2,30.63,East,86,0.0,2.0,76,0.00,,,0.00,Wunderground v.1.15,2013-12-08 05:48:00,
2013-12-07 23:53:00,11.3,5.2,30.63,East,87,1.0,1.0,76,0.00,,,0.00,Wunderground v.1.15,2013-12-08 05:53:00,